Flag for U.S.A. Weather past 2 weeks in Lexington, North Carolina, U.S.A.

Now
84 °F

Broken clouds.


Feels Like: 85 °F
Forecast: 64 / 82 °F
Wind: 5 mph from Southeast

Location: Davidson County Airport

Current Time: May 29, 2015 at 5:34:43 PM

Latest Report: May 29, 2015 at 4:55 PM


Visibility: 10 mi

Pressure: 30.17 "Hg

Humidity: 51%

Dew point: 64 °F

Location of LexingtonLocation

Historic Weather in Lexington — Graph

°F

Lexington temperature yesterday

Maximum temperature yesterday: 87 °F (at 4:15 PM)
Minimum temperature yesterday: 65 °F (at 6:15 AM)
Average temperature yesterday: 74 °F

Past Weeks' High & Low Weather Summary

 TemperatureHumidityPressure
High87 °F (May 20, 4:15 PM)99% (May 21, 8:55 AM)30.44 "Hg (May 21, 8:55 AM)
Low46 °F (May 23, 5:15 AM)26% (May 22, 4:55 PM)29.83 "Hg (May 21, 5:15 PM)
Average70 °F70%30.19 "Hg
* Reported May 14 4:15 PM — May 29 4:15 PM, Lexington, Weather by CustomWeather, © 2015

Note: Actual official high and low records may vary slightly from our data, if they occured in-between our weather recording intervals... More about our weather records

Advertising

Lexington weather history for previous 24 hours

 ConditionsComfort  
Time TempWeatherWind HumidityBarometerVisibility
4:15 PM
Fri, May 29
82 °FScattered clouds.3 mph57%30.18 "Hg10 mi
3:55 PM84 °FScattered clouds.7 mph52%30.19 "Hg10 mi
3:35 PM83 °FScattered clouds.6 mph53%30.20 "Hg10 mi
3:15 PM85 °FScattered clouds.6 mph48%30.20 "Hg10 mi
2:55 PM83 °FPartly sunny.7 mph52%30.21 "Hg10 mi
2:35 PM83 °FBroken clouds.6 mph53%30.22 "Hg10 mi
2:15 PM84 °FScattered clouds.5 mph52%30.23 "Hg10 mi
1:55 PM84 °FBroken clouds.3 mph55%30.23 "Hg10 mi
1:15 PM79 °FMostly cloudy.No wind68%30.25 "Hg10 mi
12:55 PM79 °FMostly cloudy.3 mph63%30.25 "Hg10 mi
12:35 PM80 °FScattered clouds.No wind61%30.25 "Hg10 mi
12:15 PM81 °FScattered clouds.3 mph59%30.25 "Hg10 mi
11:55 AM80 °FScattered clouds.No wind61%30.26 "Hg10 mi
11:35 AM79 °FBroken clouds.3 mph65%30.26 "Hg10 mi
11:15 AM79 °FPartly sunny.No wind65%30.27 "Hg10 mi
10:55 AM78 °FScattered clouds.5 mph65%30.26 "Hg10 mi
10:35 AM76 °FScattered clouds.5 mph66%30.26 "Hg10 mi
10:15 AM76 °FSunny.No wind71%30.26 "Hg10 mi
9:55 AM74 °FSunny.No wind77%30.26 "Hg10 mi
9:35 AM72 °FSunny.No wind81%30.27 "Hg10 mi
9:15 AM71 °FSunny.No wind83%30.27 "Hg10 mi
8:55 AM71 °FSunny.No wind84%30.26 "Hg10 mi
8:35 AM69 °FScattered clouds.No wind87%30.26 "Hg10 mi
8:15 AM69 °FScattered clouds.No wind90%30.25 "Hg10 mi
7:55 AM68 °FScattered clouds.No wind92%30.25 "Hg10 mi
7:35 AM67 °FBroken clouds.No wind95%30.25 "Hg7 mi
7:15 AM66 °FPartly sunny.No wind97%30.25 "Hg7 mi
6:55 AM64 °FFog.No wind98%30.23 "Hg5 mi
6:35 AM64 °FFog.No wind98%30.22 "Hg5 mi
6:15 AM64 °FClear.No wind98%30.21 "Hg7 mi
5:55 AM63 °FClear.No wind98%30.21 "Hg7 mi
5:35 AM63 °FClear.No wind98%30.19 "Hg7 mi
5:15 AM64 °FClear.No wind97%30.19 "Hg7 mi
4:55 AM64 °FClear.No wind97%30.19 "Hg7 mi
4:35 AM64 °FClear.No wind96%30.18 "Hg10 mi
4:15 AM65 °FClear.No wind96%30.18 "Hg10 mi
3:55 AM65 °FClear.No wind97%30.18 "Hg10 mi
3:35 AM65 °FClear.No wind95%30.19 "Hg10 mi
3:15 AM65 °FClear.No wind95%30.19 "Hg10 mi
2:55 AM66 °FClear.No wind94%30.19 "Hg10 mi
2:35 AM66 °FClear.No wind94%30.19 "Hg10 mi
2:15 AM68 °FPassing clouds.No wind90%30.20 "Hg10 mi
1:55 AM69 °FPartly cloudy.No wind90%30.21 "Hg10 mi
1:15 AM68 °FPassing clouds.No wind88%30.22 "Hg10 mi
12:55 AM69 °FClear.No wind87%30.22 "Hg10 mi
12:35 AM69 °FClear.No wind86%30.23 "Hg10 mi
12:15 AM70 °FClear.No wind84%30.23 "Hg10 mi
11:15 PM
Thu, May 28
73 °FClear.No wind78%30.23 "Hg10 mi
10:55 PM73 °FPassing clouds.No wind76%30.23 "Hg10 mi
10:35 PM73 °FPartly cloudy.3 mph77%30.23 "Hg10 mi
10:15 PM72 °FPassing clouds.No wind80%30.22 "Hg10 mi
9:55 PM73 °FPassing clouds.No wind77%30.21 "Hg10 mi
9:35 PM74 °FPassing clouds.No wind75%30.20 "Hg10 mi
9:15 PM74 °FSunny.No wind74%30.20 "Hg10 mi
8:55 PM75 °FSunny.3 mph70%30.19 "Hg10 mi
8:15 PM77 °FSunny.No wind65%30.19 "Hg10 mi
7:35 PM79 °FSunny.5 mph62%30.18 "Hg10 mi
7:15 PM80 °FSunny.6 mph61%30.17 "Hg10 mi
6:15 PM82 °FSunny.8 mph57%30.16 "Hg10 mi
5:15 PM86 °FScattered clouds.6 mph43%30.15 "Hg10 mi
Weather by CustomWeather, © 2015

See weather overviewHow to use our weather pages